User: anonymous   Login
Location: Beacon Field Observatory
(38.7700°N, 77.0829°W)
Time: 14:52:19
(UTC-05:00)
Language:

NANOSAT C BR1 - Orbit

View from above orbital plane
View from above orbital plane
View from above satellite
View from above satellite

Ground track
Ground track

The orbit data is extracted from the following two-line orbital elements,

1 40024U 14033Q   19341.03110195  .00000191  00000-0  25803-4 0  9992
2 40024  97.9187 263.1985 0011464 203.5911 156.4782 14.89949354296954
Epoch (UTC): 07 December 2019 00:44:47
Eccentricity: 0.0011464
inclination: 97.9187°
perigee height: 590 km
apogee height: 606 km
right ascension of ascending node: 263.1985°
argument of perigee: 203.5911°
revolutions per day: 14.89949354
mean anomaly at epoch: 156.4782°
orbit number at epoch: 29695

The dashed part of the orbit path shows where the satellite is in the earth's shadow,  

DLR